EW5029 Weather Reports


Display with metric or nautical units.
time (UTC)temp
F
wind
direction
speed
MPH
gust
MPH
rain 1hr
in
rain 24hr
in
rain mn
in
humidity
%
barometer
mb
20260904201022 64 342 4.0 13.0 0.00 0.56 0.56 76 1014.9
20260904200522 64 18 4.0 13.0 0.00 0.56 0.56 76 1014.8
20260904200022 64 330 3.0 14.0 0.00 0.56 0.56 76 1014.7
20260904195524 64 291 5.0 14.0 0.00 0.56 0.56 75 1014.7
20260904195022 64 309 5.0 12.0 0.00 0.56 0.56 75 1014.6
20260904194521 64 329 4.0 12.0 0.00 0.56 0.56 76 1014.6
20260904194021 64 317 3.0 12.0 0.00 0.56 0.56 76 1014.5
20260904193521 64 336 3.0 10.0 0.00 0.56 0.56 77 1014.5
20260904193021 64 14 2.0 13.0 0.00 0.56 0.56 77 1014.4
20260904192519 64 313 3.0 13.0 0.00 0.56 0.56 77 1014.4
20260904192024 64 87 2.0 9.0 0.00 0.56 0.56 77 1014.4
20260904191520 64 346 2.0 9.0 0.00 0.56 0.56 76 1014.2
20260904191023 64 306 2.0 11.0 0.00 0.56 0.56 76 1014.2
20260904190522 63 321 5.0 11.0 0.00 0.56 0.56 76 1014.1
20260904190019 63 32 3.0 11.0 0.00 0.56 0.56 76 1014.1
20260904185519 63 5 3.0 10.0 0.00 0.57 0.56 77 1013.9
20260904185022 64 344 3.0 9.0 0.00 0.57 0.56 77 1014.0
20260904184523 64 334 2.0 12.0 0.00 0.57 0.56 77 1014.0
20260904184019 64 360 3.0 13.0 0.00 0.57 0.56 77 1013.8
20260904183518 64 322 4.0 12.0 0.00 0.57 0.56 76 1013.9
20260904183018 64 315 2.0 11.0 0.00 0.57 0.56 76 1013.8
20260904182518 64 325 5.0 11.0 0.00 0.57 0.56 76 1013.7
20260904182017 64 321 2.0 12.0 0.00 0.57 0.56 76 1013.7
20260904181522 64 318 3.0 16.0 0.00 0.57 0.56 76 1013.7
20260904181018 64 340 5.0 16.0 0.00 0.57 0.56 76 1013.6
20260904180523 64 251 2.0 13.0 0.00 0.57 0.56 77 1013.6
20260904180037 64 323 4.0 14.0 0.00 0.57 0.56 77 1013.6
20260904175516 64 317 5.0 14.0 0.00 0.57 0.56 76 1013.5
20260904175016 64 315 4.0 18.0 0.00 0.57 0.56 76 1013.4
20260904174516 65 323 5.0 12.0 0.00 0.57 0.56 77 1013.4
20260904174018 65 342 6.0 14.0 0.00 0.57 0.56 78 1013.3
20260904173514 65 327 5.0 17.0 0.00 0.57 0.56 78 1013.3
20260904173022 65 339 6.0 16.0 0.00 0.57 0.56 79 1013.3
20260904172514 65 320 3.0 17.0 0.00 0.57 0.56 78 1013.1
20260904172014 65 316 8.0 17.0 0.00 0.57 0.56 78 1013.1
20260904171523 65 209 3.0 14.0 0.00 0.57 0.56 79 1013.0
20260904171014 65 286 6.0 19.0 0.00 0.57 0.56 79 1012.8
20260904170516 65 315 4.0 18.0 0.00 0.57 0.56 80 1013.0
20260904170013 65 329 3.0 20.0 0.00 0.57 0.56 79 1012.8
20260904165513 65 319 5.0 15.0 0.00 0.57 0.56 80 1012.9
20260904165013 65 88 5.0 12.0 0.00 0.57 0.56 80 1012.9
20260904164512 65 21 3.0 15.0 0.00 0.57 0.56 80 1012.7
20260904164013 65 317 4.0 20.0 0.00 0.57 0.56 79 1012.7
20260904163511 65 327 9.0 20.0 0.00 0.57 0.56 79 1012.7
20260904163011 65 302 4.0 13.0 0.00 0.57 0.56 81 1012.6
20260904162511 65 316 6.0 13.0 0.00 0.57 0.56 81 1012.5
20260904162011 65 346 5.0 14.0 0.00 0.57 0.56 81 1012.4
20260904161513 65 278 6.0 18.0 0.00 0.57 0.56 81 1012.6
20260904161010 65 243 5.0 18.0 0.00 0.57 0.56 81 1012.5
20260904160511 65 300 5.0 17.0 0.00 0.57 0.56 81 1012.4
20260904160013 65 15 6.0 16.0 0.00 0.57 0.56 81 1012.4
20260904155509 65 13 3.0 16.0 0.00 0.57 0.56 81 1012.1
20260904155012 65 329 5.0 16.0 0.00 0.57 0.56 82 1012.1
20260904154526 66 58 1.0 9.0 0.00 0.57 0.56 83 1012.1
20260904154012 65 53 2.0 11.0 0.00 0.57 0.56 83 1012.2
20260904153509 65 318 5.0 11.0 0.00 0.57 0.56 83 1012.2
20260904153009 66 323 4.0 13.0 0.00 0.57 0.56 83 1012.1
20260904152507 66 46 4.0 15.0 0.00 0.57 0.56 84 1012.1
20260904152007 66 240 4.0 15.0 0.00 0.57 0.56 84 1012.0
20260904151510 66 311 5.0 15.0 0.00 0.57 0.56 84 1012.0
20260904151006 66 40 4.0 13.0 0.00 0.57 0.56 85 1012.0
20260904150507 66 298 4.0 13.0 0.00 0.57 0.56 84 1011.8
20260904150006 66 317 4.0 17.0 0.00 0.57 0.56 85 1011.9
20260904145507 66 331 6.0 17.0 0.00 0.57 0.56 84 1012.1
20260904145008 66 355 8.0 17.0 0.00 0.57 0.56 84 1012.0
20260904144505 66 85 5.0 19.0 0.00 0.57 0.56 84 1012.0
20260904144005 66 327 6.0 19.0 0.00 0.57 0.56 84 1011.8
20260904143504 66 335 5.0 18.0 0.00 0.57 0.56 84 1011.7
20260904143008 66 273 6.0 18.0 0.00 0.57 0.56 84 1011.6
20260904142503 66 317 3.0 16.0 0.00 0.57 0.56 85 1011.6
20260904142004 66 309 7.0 20.0 0.00 0.57 0.56 85 1011.5
20260904141503 66 159 9.0 20.0 0.00 0.57 0.56 86 1011.4
20260904141002 66 321 4.0 20.0 0.00 0.57 0.56 88 1011.3
20260904140502 66 310 8.0 20.0 0.00 0.57 0.56 89 1011.4
20260904140003 65 360 5.0 16.0 0.00 0.57 0.56 90 1011.4
20260904135502 65 316 4.0 16.0 0.00 0.57 0.56 92 1011.3
20260904135004 65 320 4.0 15.0 0.00 0.57 0.56 93 1011.2
20260904134501 65 317 5.0 15.0 0.00 0.57 0.56 94 1011.1
20260904134101 65 136 5.0 15.0 0.00 0.57 0.56 95 1010.9
20260904133601 64 263 2.0 15.0 0.00 0.57 0.56 95 1010.9
20260904133115 64 316 5.0 12.0 0.01 0.57 0.56 96 1011.0
20260904132601 64 63 3.0 17.0 0.02 0.57 0.56 96 1010.8
20260904132101 64 318 3.0 17.0 0.02 0.57 0.56 96 1010.6
20260904131602 64 63 4.0 15.0 0.03 0.57 0.56 97 1010.7
20260904131200 64 277 4.0 15.0 0.04 0.57 0.56 97 1010.7
20260904130600 63 360 3.0 15.0 0.07 0.57 0.56 97 1010.6
20260904130059 63 341 5.0 15.0 0.09 0.57 0.56 97 1010.7
20260904125559 63 223 3.0 14.0 0.11 0.57 0.56 97 1010.6
20260904125059 62 15 3.0 14.0 0.12 0.57 0.56 97 1010.6
20260904124604 62 217 1.0 12.0 0.13 0.57 0.56 97 1010.4
20260904124058 62 51 4.0 13.0 0.13 0.57 0.56 97 1010.6
20260904123557 62 107 4.0 13.0 0.14 0.57 0.56 97 1010.7
20260904123058 62 100 5.0 15.0 0.13 0.56 0.54 97 1010.5
20260904122557 63 304 4.0 11.0 0.14 0.56 0.54 97 1010.5
20260904122056 63 34 3.0 12.0 0.14 0.56 0.54 97 1010.5
20260904121557 63 317 3.0 19.0 0.13 0.54 0.52 97 1010.4
20260904121056 64 333 5.0 14.0 0.13 0.54 0.51 97 1010.2
20260904120555 64 307 3.0 12.0 0.11 0.51 0.49 97 1010.2
20260904120100 64 10 1.0 9.0 0.09 0.48 0.46 97 1010.3
20260904115555 64 77 3.0 9.0 0.08 0.47 0.45 97 1010.1
20260904115055 64 360 3.0 9.0 0.07 0.46 0.43 96 1010.0
20260904114601 64 355 2.0 12.0 0.06 0.45 0.43 96 1010.0
20260904114055 64 233 4.0 14.0 0.06 0.45 0.43 96 1010.0
20260904113556 64 311 5.0 14.0 0.06 0.44 0.42 96 1010.0
20260904113055 64 336 3.0 14.0 0.06 0.44 0.42 97 1009.9
20260904112555 64 279 4.0 13.0 0.05 0.42 0.39 96 1009.8
20260904112054 64 294 5.0 13.0 0.05 0.42 0.39 96 1009.7
20260904111555 64 278 2.0 9.0 0.04 0.41 0.39 97 1009.7
20260904111053 64 206 1.0 10.0 0.05 0.41 0.39 97 1009.7
20260904110553 64 217 2.0 13.0 0.04 0.40 0.38 96 1009.8
20260904110053 64 40 5.0 13.0 0.03 0.39 0.37 96 1009.8
20260904105553 64 336 3.0 11.0 0.03 0.39 0.37 96 1009.8
20260904105052 64 339 2.0 11.0 0.02 0.39 0.36 96 1009.8
20260904104609 64 237 2.0 11.0 0.03 0.39 0.36 96 1009.8
20260904104051 64 305 4.0 11.0 0.06 0.39 0.36 96 1009.8
20260904103551 64 56 2.0 10.0 0.09 0.38 0.35 96 1009.8
20260904103057 64 320 3.0 10.0 0.11 0.38 0.35 96 1009.9
20260904102553 63 325 2.0 8.0 0.13 0.37 0.35 96 1009.9
20260904102051 63 12 2.0 13.0 0.17 0.37 0.35 96 1009.9
20260904101551 63 327 2.0 13.0 0.23 0.37 0.35 96 1009.9
20260904101050 63 329 4.0 12.0 0.33 0.36 0.34 95 1010.0
20260904100549 62 317 4.0 10.0 0.33 0.36 0.34 95 1010.1
20260904100106 62 320 3.0 14.0 0.33 0.36 0.34 95 1010.1
20260904095549 62 330 5.0 15.0 0.33 0.36 0.34 95 1010.1
20260904095048 62 327 8.0 15.0 0.33 0.36 0.34 95 1010.0
20260904094558 62 334 3.0 12.0 0.32 0.35 0.33 94 1009.8
20260904094048 62 5 4.0 14.0 0.28 0.32 0.30 94 1009.8
20260904093545 62 11 5.0 15.0 0.26 0.28 0.27 94 1010.0
20260904093044 63 26 4.0 15.0 0.24 0.27 0.24 93 1009.9
20260904092543 63 322 6.0 14.0 0.20 0.24 0.21 92 1009.9
20260904092041 63 5 5.0 19.0 0.17 0.20 0.18 90 1009.9
20260904091540 65 332 7.0 25.0 0.11 0.14 0.12 87 1009.9
20260904091039 68 314 9.0 25.0 0.00 0.03 0.01 82 1009.7
20260904090537 70 313 5.0 17.0 0.00 0.03 0.01 87 1008.9
20260904090037 70 167 4.0 11.0 0.00 0.03 0.01 87 1008.7
20260904085537 70 190 4.0 17.0 0.00 0.03 0.01 86 1008.7
20260904085037 70 93 4.0 17.0 0.00 0.03 0.01 86 1008.6
20260904084537 70 134 6.0 16.0 0.00 0.03 0.01 86 1008.6
20260904084036 70 108 4.0 11.0 0.00 0.03 0.01 86 1008.5
20260904083536 70 124 4.0 16.0 0.00 0.03 0.01 86 1008.5
20260904083036 70 196 5.0 16.0 0.00 0.03 0.01 86 1008.6
20260904082536 71 112 4.0 12.0 0.00 0.03 0.01 86 1008.7
20260904082036 71 245 5.0 15.0 0.00 0.03 0.01 86 1008.6
20260904081535 71 115 4.0 15.0 0.00 0.03 0.01 86 1008.6
20260904081034 71 170 4.0 15.0 0.00 0.03 0.01 85 1008.5
20260904080534 71 136 5.0 12.0 0.00 0.03 0.01 86 1008.5
20260904080033 71 257 4.0 16.0 0.00 0.03 0.01 87 1008.4
20260904075533 71 141 5.0 16.0 0.00 0.05 0.01 87 1008.6
20260904075031 70 174 3.0 11.0 0.00 0.05 0.01 87 1008.5
20260904074532 70 14 4.0 16.0 0.00 0.05 0.01 88 1008.7
20260904074031 70 296 5.0 16.0 0.01 0.05 0.01 88 1008.7
20260904073527 70 128 3.0 14.0 0.01 0.05 0.01 88 1008.9
20260904073033 70 220 4.0 14.0 0.01 0.05 0.01 89 1009.0
20260904072525 69 82 4.0 14.0 0.01 0.05 0.01 89 1008.9
20260904072025 69 99 3.0 14.0 0.01 0.05 0.01 90 1009.2
20260904071525 69 234 4.0 14.0 0.01 0.05 0.01 90 1009.2
20260904071024 69 321 3.0 15.0 0.01 0.05 0.01 90 1009.2
20260904070523 69 235 3.0 15.0 0.01 0.05 0.01 90 1009.1
20260904070037 69 252 4.0 10.0 0.01 0.05 0.01 89 1009.1
20260904065531 69 326 2.0 12.0 0.01 0.13 0.01 89 1009.4
20260904065021 69 227 3.0 20.0 0.01 0.13 0.01 88 1009.3
20260904064521 69 339 5.0 20.0 0.01 0.13 0.01 89 1009.4
20260904064027 69 159 3.0 10.0 0.00 0.12 0.00 89 1009.4
20260904063520 69 188 4.0 16.0 0.00 0.12 0.00 89 1009.3
20260904063019 69 132 4.0 16.0 0.00 0.12 0.00 89 1009.4
20260904062519 69 128 3.0 17.0 0.00 0.12 0.00 89 1009.5
20260904062018 69 121 4.0 12.0 0.00 0.12 0.00 89 1009.5
20260904061526 69 38 2.0 9.0 0.00 0.12 0.00 89 1009.5
20260904061017 69 140 2.0 12.0 0.00 0.12 0.00 89 1009.6
20260904060520 69 124 4.0 12.0 0.00 0.12 0.00 88 1009.6
20260904060016 69 168 4.0 10.0 0.00 0.12 0.00 88 1009.8
20260904055514 69 205 2.0 11.0 0.00 0.16 0.00 88 1010.0
20260904055014 69 133 3.0 13.0 0.00 0.16 0.00 88 1009.9
20260904054517 69 99 3.0 13.0 0.00 0.16 0.00 88 1010.0
20260904054016 69 232 2.0 12.0 0.00 0.16 0.00 88 1010.0
20260904053516 68 214 4.0 12.0 0.00 0.16 0.00 89 1010.1
20260904053011 68 184 2.0 12.0 0.00 0.16 0.00 89 1010.0
20260904052511 68 238 3.0 12.0 0.00 0.16 0.00 89 1010.0
20260904052111 68 197 3.0 12.0 0.00 0.16 0.00 89 1010.0
20260904051511 68 144 2.0 11.0 0.00 0.16 0.00 89 1010.1
20260904051012 68 90 2.0 11.0 0.00 0.16 0.00 89 1010.1
20260904050510 68 109 2.0 14.0 0.00 0.16 0.00 90 1010.1
20260904050024 68 170 2.0 10.0 0.00 0.16 0.00 90 1010.1
20260904045508 68 184 3.0 14.0 0.00 0.19 0.00 90 1010.3
20260904045007 68 183 2.0 14.0 0.00 0.19 0.00 90 1010.5
20260904044515 68 118 2.0 8.0 0.00 0.19 0.00 90 1010.6
20260904044005 68 123 1.0 9.0 0.00 0.19 0.00 90 1010.8
20260904043504 68 100 1.0 10.0 0.00 0.19 0.00 90 1010.9
20260904043004 68 107 2.0 13.0 0.00 0.19 0.00 90 1010.9
20260904042503 68 90 4.0 13.0 0.00 0.19 0.00 90 1011.1
20260904042003 68 180 3.0 7.0 0.00 0.19 0.00 90 1011.1
20260904041503 68 159 2.0 7.0 0.00 0.19 0.00 90 1011.0
20260904041002 68 102 2.0 9.0 0.00 0.19 0.00 90 1011.0
20260904040502 68 246 3.0 9.0 0.00 0.19 0.00 90 1011.1
20260904040002 68 202 3.0 8.0 0.00 0.19 0.00 90 1011.1
20260904035601 68 236 2.0 8.0 0.00 0.19 0.00 90 1011.2
20260904035100 68 218 2.0 8.0 0.00 0.19 0.00 90 1011.4
20260904034600 68 154 3.0 12.0 0.00 0.19 0.00 90 1011.4
20260904034102 68 76 2.0 12.0 0.00 0.19 0.00 90 1011.3
20260904033559 68 201 2.0 9.0 0.00 0.19 0.00 90 1011.4
20260904033105 68 140 3.0 9.0 0.00 0.19 0.00 90 1011.6
20260904032556 68 46 1.0 8.0 0.00 0.19 0.00 90 1011.6
20260904032101 68 163 2.0 8.0 0.00 0.19 0.00 90 1011.6
20260904031557 68 165 2.0 8.0 0.00 0.19 0.00 90 1011.7
20260904031057 68 244 2.0 9.0 0.00 0.19 0.00 90 1011.7
20260904030558 68 167 2.0 9.0 0.00 0.19 0.00 90 1011.6
20260904030056 68 189 1.0 10.0 0.00 0.19 0.00 90 1011.7
20260904025556 68 192 3.0 10.0 0.00 0.19 0.00 90 1011.7
20260904025055 68 98 2.0 10.0 0.00 0.19 0.00 91 1011.8
20260904024611 68 175 3.0 10.0 0.00 0.19 0.00 91 1011.8
20260904024055 68 215 2.0 9.0 0.00 0.19 0.00 91 1011.8
20260904023553 68 211 2.0 8.0 0.00 0.19 0.00 91 1011.9
20260904023100 68 267 2.0 5.0 0.00 0.19 0.00 91 1011.9
20260904022550 68 195 2.0 11.0 0.00 0.19 0.00 91 1012.1
20260904022049 68 159 3.0 11.0 0.00 0.19 0.00 91 1012.0
20260904021549 68 101 2.0 8.0 0.00 0.19 0.00 91 1012.2
20260904021049 68 258 3.0 8.0 0.00 0.19 0.00 91 1012.1
20260904020551 68 193 3.0 7.0 0.00 0.19 0.00 91 1012.3
20260904020049 68 184 2.0 8.0 0.00 0.19 0.00 91 1012.4
20260904015546 68 240 2.0 9.0 0.00 0.19 0.00 91 1012.5
20260904015046 68 246 2.0 9.0 0.00 0.19 0.00 91 1012.5
20260904014550 68 126 2.0 6.0 0.00 0.19 0.00 92 1012.6
20260904014045 68 224 2.0 8.0 0.00 0.19 0.00 92 1012.7
20260904013544 68 228 2.0 7.0 0.00 0.19 0.00 92 1012.7
20260904013045 68 190 2.0 6.0 0.00 0.19 0.00 92 1012.8
20260904012544 68 70 2.0 10.0 0.00 0.19 0.00 92 1012.9
20260904012043 68 40 3.0 10.0 0.00 0.19 0.00 92 1012.9
20260904011543 68 304 2.0 7.0 0.00 0.19 0.00 92 1013.0
20260904011041 68 134 2.0 8.0 0.00 0.19 0.00 92 1013.1
20260904010540 68 213 1.0 5.0 0.00 0.19 0.00 92 1013.1
20260904010040 68 229 1.0 8.0 0.00 0.19 0.00 92 1013.2
20260904005539 68 180 2.0 8.0 0.00 0.19 0.00 92 1013.2
20260904005038 68 165 1.0 9.0 0.00 0.19 0.00 92 1013.3
20260904004539 68 206 2.0 9.0 0.00 0.19 0.00 92 1013.3
20260904004037 68 169 2.0 6.0 0.00 0.19 0.00 92 1013.5
20260904003537 68 211 2.0 7.0 0.00 0.19 0.00 92 1013.5
20260904003039 68 184 2.0 7.0 0.00 0.19 0.00 92 1013.6
20260904002536 68 117 1.0 6.0 0.00 0.19 0.00 92 1013.6
20260904002036 68 259 1.0 8.0 0.00 0.19 0.00 92 1013.7
20260904001535 68 159 2.0 8.0 0.00 0.19 0.00 92 1013.7
20260904001037 68 49 2.0 7.0 0.00 0.19 0.00 92 1013.6
20260904000536 68 108 1.0 7.0 0.00 0.19 0.00 92 1013.7
20260904000048 68 195 2.0 5.0 0.00 0.19 0.00 92 1013.7
20260903235534 68 240 2.0 5.0 0.00 0.19 0.00 92 1013.7
20260903235033 68 91 1.0 5.0 0.00 0.19 0.00 92 1013.6
20260903234533 68 144 1.0 9.0 0.00 0.19 0.00 92 1013.8
20260903234035 68 146 2.0 9.0 0.00 0.19 0.00 92 1013.8
20260903233535 68 100 1.0 6.0 0.00 0.19 0.00 92 1013.8
20260903233037 68 236 2.0 6.0 0.00 0.19 0.00 92 1013.8
20260903232530 68 78 1.0 5.0 0.00 0.19 0.00 92 1014.0
20260903232030 68 186 1.0 7.0 0.00 0.19 0.00 92 1014.0
20260903231530 68 109 2.0 7.0 0.00 0.19 0.00 92 1014.0
20260903231028 68 109 1.0 6.0 0.00 0.19 0.00 92 1014.1
20260903230527 68 79 1.0 9.0 0.00 0.19 0.00 92 1014.3
20260903230027 68 171 3.0 9.0 0.00 0.19 0.00 92 1014.5
20260903225526 68 136 2.0 9.0 0.00 0.19 0.00 93 1014.5
20260903225025 68 214 1.0 9.0 0.00 0.19 0.00 93 1014.6
20260903224537 68 151 0.0 5.0 0.00 0.19 0.00 93 1014.7
20260903224025 68 132 1.0 5.0 0.00 0.19 0.00 93 1014.6
20260903223531 68 158 1.0 5.0 0.00 0.19 0.00 93 1014.7
20260903223031 68 105 2.0 6.0 0.00 0.19 0.00 93 1014.7
20260903222524 68 101 1.0 6.0 0.00 0.19 0.00 93 1014.6
20260903222023 68 211 1.0 5.0 0.00 0.19 0.00 93 1014.8
20260903221522 68 41 0.0 5.0 0.00 0.19 0.00 93 1014.9
20260903221021 68 129 1.0 9.0 0.00 0.19 0.00 93 1015.1
20260903220520 67 327 1.0 9.0 0.00 0.19 0.00 93 1014.9
20260903220020 67 206 2.0 7.0 0.00 0.19 0.00 94 1015.0
20260903215520 67 177 2.0 7.0 0.00 0.19 0.19 94 1015.1
20260903215020 67 129 1.0 4.0 0.00 0.19 0.19 94 1015.0
20260903214519 67 255 0.0 6.0 0.00 0.19 0.19 94 1015.1
20260903214021 67 236 0.0 6.0 0.00 0.19 0.19 94 1015.1
20260903213519 67 159 2.0 6.0 0.00 0.19 0.19 94 1015.1
20260903213037 67 115 1.0 3.0 0.00 0.19 0.19 94 1015.3
20260903212518 67 202 0.0 6.0 0.00 0.19 0.19 94 1015.4
20260903212018 67 214 1.0 7.0 0.00 0.19 0.19 94 1015.4
20260903211518 67 225 2.0 7.0 0.00 0.19 0.19 94 1015.4
20260903211018 67 209 1.0 4.0 0.00 0.19 0.19 94 1015.5
20260903210518 67 111 1.0 8.0 0.00 0.19 0.19 94 1015.5
20260903210018 67 163 1.0 8.0 0.00 0.19 0.19 94 1015.6
20260903205517 67 236 1.0 4.0 0.00 0.19 0.19 94 1015.5
20260903205019 67 165 1.0 5.0 0.00 0.19 0.19 94 1015.5
20260903204517 67 169 2.0 6.0 0.00 0.19 0.19 94 1015.5
20260903204017 67 251 1.0 5.0 0.00 0.19 0.19 94 1015.6
20260903203516 67 195 0.0 5.0 0.00 0.19 0.19 94 1015.8
20260903203026 67 296 0.0 4.0 0.00 0.19 0.19 94 1015.9
20260903202519 67 161 1.0 3.0 0.00 0.19 0.19 94 1015.9
20260903202016 67 47 0.0 3.0 0.00 0.19 0.19 94 1015.8
20260903201515 67 104 1.0 8.0 0.00 0.19 0.19 94 1015.9